Location: Hodgeman County Ambulance
(38.0844°N, 99.8949°W)
Time: 00:25:30
(UTC+00:00)

Cosmos 2322 Rocket - Pass Details

Date: 27 October 2020
Orbit: 833 x 851 km, 71.0° (Epoch: 04 December)

Event Time Altitude Azimuth Distance (km) Brightness Sun altitude
Rises 12:10:46 0° 347° (NNW) 3,417 5.1 -10.5°
Reaches altitude 10° 12:13:34 10° 359° (N) 2,475 4.5 -9.9°
Maximum altitude 12:18:27 29° 58° (ENE) 1,503 4.1 -9.0°
Drops below altitude 10° 12:23:18 10° 118° (ESE) 2,453 6.0 -8.0°
Sets 12:26:03 0° 129° (SE) 3,380 6.6 -7.5°
